Airfield :
LOGIN :

Register | Disclaimer

   EN    FR    IT 

 










Legend :    VFR   Marginal VFR   IFR   Intensive IFR   Very Intensive IFR
Visi :
Ceiling :
>= 8 km
>= 3000ft
5 to 8 km
1000 to 3000 ft
1500m to 5 km
500 to 1000 ft
800 to 1500m
200 to 500 ft
< 800m
< 200 ft
Symbols :   Thunderstorms  Fog  Heavy snow  Heavy precipitations  Wind > 20 kt
SIGMETs :     Misc.  Thunderstorms  Icing  Turbulence  Mountain Waves  Volcanic Ashes







- Airport Elevation : 1475 ft


LSZC - Buochs Stans

CURRENT METAR :
  • 220850Z 23003KT CAVOK 03/00 Q1017

EXPIRED METARs :
  • 220820Z 22004KT CAVOK 01/M01 Q1016
  • 220750Z 25004KT CAVOK 02/M00 Q1016
  • 220720Z 24004KT CAVOK 01/M01 Q1017
  • 220650Z 25005KT CAVOK 01/M01 Q1017
  • 220620Z AUTO 25003KT CAVOK 01/M00 Q1017

TAF TAF LSZC
Valid from the 22 at 09:00 until the 22 at 18:00 UTC


220825Z 2209/2218 24004KT CAVOK
No reported NOTAMs for that airfield.



MET'MAP, your aeronautical weather chart ! - Copyright ORBIFLY December 2007 - Disclaimer

ORBIFLY MET'MAP TEAM :

Programming & Development : Alexandra Zaïnal
Concept & Development : Baudouin d'Aumeries
Co-Development & Prog : Marc-Olivier Méhu
Technical & hardware support : Manuel Goepfert

Contact : metmap@orbifly.com




SOURCES & CREDITS :

   NOAA